Regional Weather Roundup
Issued by NWS

Home | Current Version | Previous Version | Text Only | Print | Product List | Glossary On
Versions: 1 2 3 4 5 6 7 8 9 10 11 12 13 14 15 16 17 18 19 20 21 22 23 24 25 26 27 28 29 30 31 32 33 34 35 36 37 38 39 40 41 42 43 44 45 46 47 48 49 50
000
ASCA44 KEWX 150920
RWRMX

LATIN AMERICA AND CARIBBEAN REGIONAL WEATHER ROUNDUP
NATIONAL WEATHER SERVICE AUSTIN/SAN ANTONIO TX
300 AM CST FRI DEC 15 2017

NOTE: "FAIR" INDICATED FEW OR NO CLOUDS BELOW 12,000 FEET WITH NO
SIGNIFICANT WEATHER AND/OR OBSTRUCTIONS TO VISIBILITY.

BAJA CALIFORNIA

CITY           SKY/WX    TMP DP  RH WIND       PRES   REMARKS
MEXICALI         N/A    N/A N/A N/A MISG        N/A
S.J. DEL CABO    N/A    N/A N/A N/A MISG        N/A
TIJUANA        CLEAR     54  18  24 CALM      30.11

NORTHWESTERN MEXICO

CITY           SKY/WX    TMP DP  RH WIND       PRES   REMARKS
HERMOSILLO     CLEAR     54  37  54 CALM      30.00R

NORTHEASTERN MEXICO

CITY           SKY/WX    TMP DP  RH WIND       PRES   REMARKS
MONCLOVA         N/A    N/A N/A N/A MISG        N/A
MONTERREY      LGT RAIN  52  50  93 NW16      30.12R
REYNOSA          N/A    N/A N/A N/A MISG        N/A
SALTILLO       RAIN      45  45 100 CALM      30.16S VSB 1/2
CD. VICTORIA     N/A    N/A N/A N/A MISG        N/A

WESTERN MEXICO

CITY           SKY/WX    TMP DP  RH WIND       PRES   REMARKS
AGUASCALIENTES   N/A    N/A N/A N/A MISG        N/A
COLIMA           N/A    N/A N/A N/A MISG        N/A
GUADALAJARA    MOCLDY    52  45  76 CALM      30.12S
MAZATLAN       CLOUDY    63  63 100 E3        29.91F
P. VALLARTA    CLOUDY    72  72 100 NE5       29.86F
URUAPAN          N/A    N/A N/A N/A MISG        N/A
ZACATECAS        N/A    N/A N/A N/A MISG        N/A

CENTRAL MEXICO

CITY           SKY/WX    TMP DP  RH WIND       PRES   REMARKS
CUERNAVACA       N/A    N/A N/A N/A MISG        N/A
MEXICO CITY    PTCLDY    52  25  35 CALM      30.24F
MORELIA        MOCLDY    50  45  81 CALM      30.17F
POZA RICA        N/A    N/A N/A N/A MISG        N/A
QUERETARO      PTCLDY    41  34  75 CALM      30.22
S. LUIS POTOSI   N/A     55  27  33 CALM      30.12S
TOLUCA         PTCLDY    34  28  80 CALM      30.30

SOUTHERN MEXICO

CITY           SKY/WX    TMP DP  RH WIND       PRES   REMARKS
ACAPULCO       PTCLDY    75  72  88 CALM      29.88F
B. DE HUATULCO   N/A    N/A N/A N/A MISG        N/A
P. ESCONDIDO     N/A    N/A N/A N/A MISG        N/A
VERACRUZ         N/A    N/A N/A N/A MISG        N/A

YUCATAN PENINSULA

CITY           SKY/WX    TMP DP  RH WIND       PRES   REMARKS
CAMPECHE         N/A    N/A N/A N/A MISG        N/A
CANCUN         PTCLDY    72  64  78 E9        29.98F
CHETUMAL       MOCLDY    68  66  94 CALM      29.94
CD. DEL CARMEN   N/A    N/A N/A N/A MISG        N/A
COZUMEL        CLEAR     68  66  94 E6        29.95
MERIDA         CLEAR     66  59  77 E5        29.97F
MINATITLAN       N/A    N/A N/A N/A MISG        N/A
TAPACHULA      CLEAR     68  68 100 CALM      29.85F

CENTRAL AMERICA

CITY           SKY/WX    TMP DP  RH WIND       PRES   REMARKS

CARIBBEAN

CITY           SKY/WX    TMP DP  RH WIND       PRES   REMARKS
CURACAO          N/A     81  72  74 E14       29.92S
KINGSTON       PTCLDY    79  72  78 VRB2      29.94R
SAN JUAN       MOCLDY    75  73  94 S3        30.04R
SANTO DOMINGO  MOCLDY    73  72  94 NE5       30.00S
ST. CROIX      CLEAR     75  70  83 NE8       30.03R
ST. THOMAS     CLEAR     75  73  94 E3        30.03R

$$





USA.gov is the U.S. government's official web portal to all federal, state and local government web resources and services.